sat.trackr.live / text

‹ back to catalog

ONEWEB-0325

NORAD 49194 · 2021-083J

PAYLOAD ACTIVE UNKNOWN

§ Identity

Operator
Country
UK
Launch date
2021-09-14
Launch site
TYMSC
Launch vehicle
Mass (kg)
RCS (m²)

Purposes: comms

External: N2YO · Heavens-Above · Gunter

§ Orbital elements

Epoch: 2026-09-20T03:15:46.300320Z

Period
109.20 min
Inclination
87.9158°
Eccentricity
0.0002010
Mean motion
13.18687421 rev/d
Perigee alt
1,188.2 km
Apogee alt
1,191.3 km
Semi-major
7,567.9 km
B*
-7.3061e-6
RAAN
316.5889°
Arg perigee
96.0493°
Mean anomaly
264.0868°
Rev number
24,252

§ Raw data

ONEWEB-03251 49194U 21083J   26263.13595255  .00000010  00000+0 -73061-5 0  99982 49194  87.9158 316.5889 0002010  96.0493 264.0868 13.18687421242521

JSON: /api/v1/satellites/49194 · /tle

For live sub-satellite position, see the globe view (requires WebGL).

§ Visibility from observer

Set your observer location to see the next 7 days of passes ≥ 10°. The values pass through the URL so the page stays shareable.

No JS? Fill the form by hand. The geolocation button needs JavaScript.